Regional Weather Roundup
Issued by NWS San Diego, CA

Home | Current Version | Previous Version | Text Only | Print | Product List | Glossary On
Versions: 1 2 3 4 5 6 7 8 9 10 11 12 13 14 15 16 17 18 19 20 21 22 23 24 25 26 27 28 29 30 31 32 33 34 35 36 37 38 39 40 41 42 43 44 45 46 47 48 49 50
000
ASUS46 KSGX 241110
RWRSGX

SAN DIEGO HOURLY WEATHER ROUNDUP
NATIONAL WEATHER SERVICE SAN DIEGO CA
400 AM PDT FRI OCT 24 2014

NOTE: "FAIR" INDICATES FEW OR NO CLOUDS BELOW 12,000 FEET WITH NO
SIGNIFICANT WEATHER AND/OR OBSTRUCTIONS TO VISIBILITY.

CAZ042-043-060-061-PZZ750-775-241200-

GREATER SAN DIEGO AREA

CITY           SKY/WX    TMP DP  RH WIND       PRES   REMARKS
LINDBERGH FLD  CLEAR     65  57  75 CALM      29.96F
POINT LOMA       N/A     67  65  93 NW7         N/A
NATIONAL CITY    N/A     60  56  85 CALM      29.96S
CHULA VISTA      N/A     58  53  84 CALM      29.89S
IMPERIAL BEACH CLEAR     53  50  89 CALM      29.95F
BROWN FIELD    CLEAR     64  43  46 CALM      29.96S
MIRAMAR MCAS   PTCLDY    58  42  55 NE3       29.96S
MONTGOMERY FLD CLEAR     62  48  60 CALM      29.96S

$$

NORTH SAN DIEGO COUNTY

CITY           SKY/WX    TMP DP  RH WIND       PRES   REMARKS
CAMP PENDLETON CLEAR     51  41  68 CALM      29.95F
OCEANSIDE AP   CLEAR     51  49  92 CALM      29.95S
OCEANSIDE HBR    N/A     58  52  80 E5        29.97F
CARLSBAD       CLEAR     60  46  59 CALM      29.94
DEL MAR          N/A     63  63  99 CALM      29.98S
LA JOLLA SCRIP   N/A     65  64  95 CALM      29.92F
FALLBROOK        N/A     65  38  37 CALM      29.95S
ESCONDIDO        N/A     59  46  62 CALM      29.98S
SAN MARCOS       N/A     64  47  52 CALM      29.93F
POWAY            N/A     54  44  68 CALM      29.97F

$$

EAST SAN DIEGO COUNTY

CITY           SKY/WX    TMP DP  RH WIND       PRES   REMARKS
RAMONA         CLEAR     51  38  60 CALM      29.99F
SANTEE LAKES     N/A     56  45  67 CALM      29.97F
LA MESA          N/A     65  50  60 CALM      29.89S
JAMUL            N/A     61  44  53 CALM      29.95S
DESCANSO N       N/A     57  37  47 E3        29.88S
MT. LAGUNA OBS   N/A     62  20  20 CALM      29.78F
CAMPO            N/A     49  31  49 NE7       30.04S

$$

ORANGE COUNTY AND THE LOS ANGELES BASIN

CITY           SKY/WX    TMP DP  RH WIND       PRES   REMARKS
JOHN WAYNE AP  CLEAR     64  53  67 CALM      29.95F
LAKE FOREST FR   N/A     64  34  33 NW2       29.84S
SANTA ANA        N/A     57  53  85 CALM      29.90F
HUNTINGTON BCH   N/A     56  55  96 CALM      29.97F
LOS ALAMITOS   FAIR      58  58 100 NE2       29.95S
FULLERTON      CLEAR     61  51  70 E3        29.94F
LONG BEACH     MOCLDY    60  58  92 CALM      29.95F
L.A. AP        PTCLDY    61  61 100 CALM      29.95F
L.A. DOWNTOWN  CLEAR     61  55  81 CALM      29.95S

$$

THE INLAND EMPIRE

CITY           SKY/WX    TMP DP  RH WIND       PRES   REMARKS
CORONA         CLEAR     49  44  83 CALM      29.98S
CHINO          CLEAR     56  48  74 CALM      29.98F
ONTARIO        CLEAR     65  43  44 CALM      29.97F
RIVERSIDE AP   CLEAR     62  46  55 CALM      29.98S
RIV CYN CREST    N/A     63  50  61 CALM      29.95S
MORENO VALLEY    N/A     67  41  39 CALM      29.18S
MARCH ARB      CLEAR     52  34  50 SE1       30.00S
HORSETHIEF CYN   N/A     61  35  37 CALM      29.98S
PERRIS           N/A     59  42  51 CALM      29.98S
MENIFEE          N/A     56  48  73 CALM      30.05S
HEMET EAST       N/A     68  29  23 CALM      29.95F
FRENCH VALLEY  FAIR      55  37  50 CALM      30.00F
TEMECULA         N/A     57  46  65 CALM      29.96S

$$

SAN BERNARDINO AND RIVERSIDE COUNTY MOUNTAINS

CITY           SKY/WX    TMP DP  RH WIND       PRES   REMARKS
BIG BEAR AP    CLEAR     34  19  55 CALM      30.29F
ANGELUS OAKS     N/A     54  27  36 CALM      29.93F
PINE COVE        N/A     60  27  28 CALM      29.87F

$$

SOUTHERN DESERT INCLUDING THE COACHELLA VALLEY

CITY           SKY/WX    TMP DP  RH WIND       PRES   REMARKS
PALM SPRINGS   CLEAR     75  33  21 NW7       29.95F
THOUSAND PALMS   N/A     69  42  38 W3        29.90S
PALM DESERT      N/A     67  46  46 CALM        N/A
THERMAL        CLEAR     64  44  48 N8        29.89F
BLYTHE         CLEAR     65  42  43 N5        29.93F
IMPERIAL AP    CLEAR     66  46  48 W5        29.90S
EL CENTRO NAS  CLEAR     66  39  37 W7        29.90S
YUMA AZ        CLEAR     72  46  39 E6        29.91S

$$

UPPER DESERT

CITY           SKY/WX    TMP DP  RH WIND       PRES   REMARKS
VICTORVILLE AP CLEAR     54  25  32 CALM      30.06S
HESPERIA         N/A     57  31  37 CALM      30.08F
APPLE VALLEY     N/A     46  36  68 CALM      30.14S
PALMDALE       CLEAR     53  26  35 S8        30.04F
LANCASTER      CLEAR     45  25  45 E3        30.04F
EDWARDS AFB    CLEAR     52  25  35 SW2       30.02F
DAGGETT        CLEAR     59  31  34 W7        30.02S
29 PALMS N     CLEAR     61  37  41 W7        30.09S
NEEDLES        CLEAR     67  39  35 W3        29.98R

$$

REGIONAL REPORTS

CITY           SKY/WX    TMP DP  RH WIND       PRES   REMARKS
SANTA BARBARA  CLEAR     55  49  80 CALM      29.94F
SANDBERG       CLEAR     65  23  20 S12G20    30.13F
MT. WILSON       N/A     61  27  27 S8G14       N/A
LAS VEGAS NV   CLEAR     63  36  36 SW8       30.01S
PHOENIX AZ     CLEAR     71  49  45 E6        29.98R
TIJUANA          N/A    N/A N/A N/A MISG        N/A

$$

OFFSHORE ISLANDS

CITY           SKY/WX    TMP DP  RH WIND       PRES   REMARKS
CATALINA ARPT  CLEAR     72  21  14 CALM      30.00F

$$

MARINE AND OFFSHORE BUOY REPORTS

STATION/POSITION SKY/WX   TEMP    WIND        PRES    SWELL
                          AIR SEA DIR/SP/G            HT/PER/DIR
                          (F)     (DEG/KT/KT) (MB)    (FT/S/D)
TANNER BANKS               66 68  320/  6/ 10 1014.2F   7/310/12
S CLEMENTE BASIN           69 71  310/  4/  6 1013.9F   5/290/12
SAN NICOLAS IS.               66                N/A     7/310/13
SO. S. ROSA ISLA           64 70  320/ 16/ 17 1013.3F   5/13
W. S. BARBARA CH           61 63  320/ 16/ 17 1013.2F   8/310/13
M. S. BARBARA CH           65 69  210/  6/  6 1014.3
S. MONICA BASIN            67 71   CALM  /  2 1013.6F
S PEDRO CHANNEL               70                N/A     2/260/14
DANA POINT                    70                N/A     2/260/13
CMP PENDLETON NS              70                N/A     2/220/17
OCEANSIDE OFFSHR              71                N/A     2/200/17
TORREY PINES OTR              72                N/A     2/280/13
LA JOLLA 1                 67 70   30/  2/  3 1014.3S
MISSION BAY BUOY              72                N/A     3/270/13
SAN DIEGO BAY                 74              1014.8R
POINT LOMA SOUTH              72                N/A     3/280/13

$$




USA.gov is the U.S. government's official web portal to all federal, state and local government web resources and services.